Back to catalog

STARLINK-31699

AliveCommunicationsVLEO
NORAD 59551·PAYLOAD·🇺🇸 United States

Launched Apr 18, 2024 from Cape Canaveral Space Force Station

Loading…

Next Passes (next 24 hours)

TLE

FreshSource: CelesTrak SupGP

Epoch: Sep 14, 2026, 21:56 UTC

1 59551C 24074T   26257.91437500 -.00008804  00000+0 -31887-3 0  2571
2 59551  43.0028 354.7587 0001723 274.8187 141.7520 15.27585552    19

Track STARLINK-31699 in real time with AllMySat

Download on the App Store